Year,Month,Day,Hour,Minute,Value (Times are PST for windgust in km/hr)
2006,12,15,00,00,1.60
2006,12,15,00,01,3.20
2006,12,15,00,02,4.80
2006,12,15,00,03,4.80
2006,12,15,00,04,3.20
2006,12,15,00,05,3.20
2006,12,15,00,06,3.20
2006,12,15,00,07,4.80
2006,12,15,00,08,1.60
2006,12,15,00,09,3.20
2006,12,15,00,10,4.80
2006,12,15,00,11,4.80
2006,12,15,00,12,4.80
2006,12,15,00,13,6.40
2006,12,15,00,14,8.10
2006,12,15,00,15,4.80
2006,12,15,00,16,4.80
2006,12,15,00,17,4.80
2006,12,15,00,18,8.10
2006,12,15,00,19,8.10
2006,12,15,00,20,6.40
2006,12,15,00,21,6.40
2006,12,15,00,22,4.80
2006,12,15,00,23,27.40
2006,12,15,00,24,25.70
2006,12,15,00,25,33.80
2006,12,15,00,26,25.70
2006,12,15,00,27,29.00
2006,12,15,00,28,41.80
2006,12,15,00,29,37.00
2006,12,15,00,30,35.40
2006,12,15,00,31,24.20
2006,12,15,00,32,38.60
2006,12,15,00,33,25.70
2006,12,15,00,34,40.20
2006,12,15,00,35,43.50
2006,12,15,00,36,46.70
2006,12,15,00,37,41.80
2006,12,15,00,38,38.60
2006,12,15,00,39,37.00
2006,12,15,00,40,40.20
2006,12,15,00,41,29.00
2006,12,15,00,42,38.60
2006,12,15,00,43,30.60
2006,12,15,00,44,45.10
2006,12,15,00,45,45.10
2006,12,15,00,46,48.30
2006,12,15,00,47,40.20
2006,12,15,00,48,45.10
2006,12,15,00,49,29.00
2006,12,15,00,50,37.00
2006,12,15,00,51,40.20
2006,12,15,00,52,33.80
2006,12,15,00,53,45.10
2006,12,15,00,54,43.50
2006,12,15,00,55,41.80
2006,12,15,00,56,38.60
2006,12,15,00,57,38.60
2006,12,15,00,58,41.80
2006,12,15,00,59,33.80
2006,12,15,01,00,30.60
2006,12,15,01,01,24.20
2006,12,15,01,02,35.40
2006,12,15,01,03,45.10
2006,12,15,01,04,38.60
2006,12,15,01,05,41.80
2006,12,15,01,06,40.20
2006,12,15,01,07,40.20
2006,12,15,01,08,49.90
2006,12,15,01,09,38.60
2006,12,15,01,10,38.60
2006,12,15,01,11,54.70
2006,12,15,01,12,35.40
2006,12,15,01,13,35.40
2006,12,15,01,14,40.20
2006,12,15,01,15,53.10
2006,12,15,01,16,46.70
2006,12,15,01,17,59.50
2006,12,15,01,18,41.80
2006,12,15,01,19,41.80
2006,12,15,01,20,38.60
2006,12,15,01,21,37.00
2006,12,15,01,22,27.40
2006,12,15,01,23,45.10
2006,12,15,01,24,20.90
2006,12,15,01,25,38.60
2006,12,15,01,26,43.50
2006,12,15,01,27,56.30
2006,12,15,01,28,54.70
2006,12,15,01,29,49.90
2006,12,15,01,30,43.50
2006,12,15,01,31,43.50
2006,12,15,01,32,32.20
2006,12,15,01,33,49.90
2006,12,15,01,34,56.30
2006,12,15,01,35,53.10
2006,12,15,01,36,57.90
2006,12,15,01,37,54.70
2006,12,15,01,38,45.10
2006,12,15,01,39,57.90
2006,12,15,01,40,45.10
2006,12,15,01,41,41.80
2006,12,15,01,42,53.10
2006,12,15,01,43,49.90
2006,12,15,01,44,40.20
2006,12,15,01,45,38.60
2006,12,15,01,46,37.00
2006,12,15,01,47,53.10
2006,12,15,01,48,29.00
2006,12,15,01,49,25.70
2006,12,15,01,50,40.20
2006,12,15,01,51,66.00
2006,12,15,01,52,53.10
2006,12,15,01,53,32.20
2006,12,15,01,54,54.70
2006,12,15,01,55,54.70
2006,12,15,01,56,45.10
2006,12,15,01,57,41.80
2006,12,15,01,58,56.30
2006,12,15,01,59,40.20
2006,12,15,02,00,66.00
2006,12,15,02,01,46.70
2006,12,15,02,02,33.80
2006,12,15,02,03,61.20
2006,12,15,02,04,54.70
2006,12,15,02,05,40.20
2006,12,15,02,06,53.10
2006,12,15,02,07,57.90
2006,12,15,02,08,49.90
2006,12,15,02,09,56.30
2006,12,15,02,10,53.10
2006,12,15,02,11,67.60
2006,12,15,02,12,46.70
2006,12,15,02,13,46.70
2006,12,15,02,14,51.50
2006,12,15,02,15,56.30
2006,12,15,02,16,49.90
2006,12,15,02,17,38.60
2006,12,15,02,18,61.20
2006,12,15,02,19,53.10
2006,12,15,02,20,41.80
2006,12,15,02,21,54.70
2006,12,15,02,22,69.20
2006,12,15,02,23,56.30
2006,12,15,02,24,48.30
2006,12,15,02,25,45.10
2006,12,15,02,26,43.50
2006,12,15,02,27,38.60
2006,12,15,02,28,56.30
2006,12,15,02,29,56.30
2006,12,15,02,30,53.10
2006,12,15,02,31,46.70
2006,12,15,02,32,46.70
2006,12,15,02,33,57.90
2006,12,15,02,34,54.70
2006,12,15,02,35,48.30
2006,12,15,02,36,53.10
2006,12,15,02,37,40.20
2006,12,15,02,38,37.00
2006,12,15,02,39,30.60
2006,12,15,02,40,29.00
2006,12,15,02,41,40.20
2006,12,15,02,42,54.70
2006,12,15,02,43,51.50
2006,12,15,02,44,48.30
2006,12,15,02,45,46.70
2006,12,15,02,46,56.30
2006,12,15,02,47,53.10
2006,12,15,02,48,46.70
2006,12,15,02,49,35.40
2006,12,15,02,50,49.90
2006,12,15,02,51,46.70
2006,12,15,02,52,41.80
2006,12,15,02,53,62.70
2006,12,15,02,54,40.20
2006,12,15,02,55,32.20
2006,12,15,02,56,59.50
2006,12,15,02,57,66.00
2006,12,15,02,58,57.90
2006,12,15,02,59,59.50
2006,12,15,03,00,64.40
2006,12,15,03,01,35.40
2006,12,15,03,02,59.50
2006,12,15,03,03,51.50
2006,12,15,03,04,51.50
2006,12,15,03,05,35.40
2006,12,15,03,06,37.00
2006,12,15,03,07,30.60
2006,12,15,03,08,38.60
2006,12,15,03,09,40.20
2006,12,15,03,10,62.70
2006,12,15,03,11,74.00
2006,12,15,03,12,83.70
2006,12,15,03,13,56.30
2006,12,15,03,14,53.10
2006,12,15,03,15,66.00
2006,12,15,03,16,75.60
2006,12,15,03,17,64.40
2006,12,15,03,18,61.20
2006,12,15,03,19,43.50
2006,12,15,03,20,35.40
2006,12,15,03,21,32.20
2006,12,15,03,22,61.20
2006,12,15,03,23,57.90
2006,12,15,03,24,41.80
2006,12,15,03,25,43.50
2006,12,15,03,26,57.90
2006,12,15,03,27,41.80
2006,12,15,03,28,41.80
2006,12,15,03,29,33.80
2006,12,15,03,30,66.00
2006,12,15,03,31,48.30
2006,12,15,03,32,56.30
2006,12,15,03,33,37.00
2006,12,15,03,34,32.20
2006,12,15,03,35,53.10
2006,12,15,03,36,53.10
2006,12,15,03,37,54.70
2006,12,15,03,38,35.40
2006,12,15,03,39,51.50
2006,12,15,03,40,57.90
2006,12,15,03,41,41.80
2006,12,15,03,42,54.70
2006,12,15,03,43,51.50
2006,12,15,03,44,43.50
2006,12,15,03,45,56.30
2006,12,15,03,46,33.80
2006,12,15,03,47,56.30
2006,12,15,03,48,51.50
2006,12,15,03,49,41.80
2006,12,15,03,50,45.10
2006,12,15,03,51,53.10
2006,12,15,03,52,49.90
2006,12,15,03,53,46.70
2006,12,15,03,54,54.70
2006,12,15,03,55,38.60
2006,12,15,03,56,49.90
2006,12,15,03,57,51.50
2006,12,15,03,58,51.50
2006,12,15,03,59,48.30
2006,12,15,04,00,70.80
2006,12,15,04,01,53.10
2006,12,15,04,02,51.50
2006,12,15,04,03,64.40
2006,12,15,04,04,56.30
2006,12,15,04,05,45.10
2006,12,15,04,06,54.70
2006,12,15,04,07,57.90
2006,12,15,04,08,43.50
2006,12,15,04,09,43.50
2006,12,15,04,10,53.10
2006,12,15,04,11,46.70
2006,12,15,04,12,43.50
2006,12,15,04,13,48.30
2006,12,15,04,14,57.90
2006,12,15,04,15,53.10
2006,12,15,04,16,33.80
2006,12,15,04,17,45.10
2006,12,15,04,18,41.80
2006,12,15,04,19,46.70
2006,12,15,04,20,32.20
2006,12,15,04,21,51.50
2006,12,15,04,22,56.30
2006,12,15,04,23,45.10
2006,12,15,04,24,53.10
2006,12,15,04,25,56.30
2006,12,15,04,26,64.40
2006,12,15,04,27,53.10
2006,12,15,04,28,51.50
2006,12,15,04,29,53.10
2006,12,15,04,30,53.10
2006,12,15,04,31,64.40
2006,12,15,04,32,54.70
2006,12,15,04,33,54.70
2006,12,15,04,34,69.20
2006,12,15,04,35,43.50
2006,12,15,04,36,51.50
2006,12,15,04,37,57.90
2006,12,15,04,38,56.30
2006,12,15,04,39,54.70
2006,12,15,04,40,38.60
2006,12,15,04,41,49.90
2006,12,15,04,42,48.30
2006,12,15,04,43,49.90
2006,12,15,04,44,41.80
2006,12,15,04,45,48.30
2006,12,15,04,46,48.30
2006,12,15,04,47,41.80
2006,12,15,04,48,27.40
2006,12,15,04,49,33.80
2006,12,15,04,50,43.50
2006,12,15,04,51,41.80
2006,12,15,04,52,41.80
2006,12,15,04,53,35.40
2006,12,15,04,54,49.90
2006,12,15,04,55,40.20
2006,12,15,04,56,30.60
2006,12,15,04,57,30.60
2006,12,15,04,58,29.00
2006,12,15,04,59,33.80
2006,12,15,05,00,51.50
2006,12,15,05,01,29.00
2006,12,15,05,02,25.70
2006,12,15,05,03,38.60
2006,12,15,05,04,46.70
2006,12,15,05,05,38.60
2006,12,15,05,06,41.80
2006,12,15,05,07,35.40
2006,12,15,05,08,35.40
2006,12,15,05,09,33.80
2006,12,15,05,10,27.40
2006,12,15,05,11,27.40
2006,12,15,05,12,29.00
2006,12,15,05,13,41.80
2006,12,15,05,14,35.40
2006,12,15,05,15,35.40
2006,12,15,05,16,35.40
2006,12,15,05,17,35.40
2006,12,15,05,18,45.10
2006,12,15,05,19,24.20
2006,12,15,05,20,53.10
2006,12,15,05,21,53.10
2006,12,15,05,22,41.80
2006,12,15,05,23,30.60
2006,12,15,05,24,41.80
2006,12,15,05,25,37.00
2006,12,15,05,26,33.80
2006,12,15,05,27,29.00
2006,12,15,05,28,27.40
2006,12,15,05,29,33.80
2006,12,15,05,30,29.00
2006,12,15,05,31,29.00
2006,12,15,05,32,40.20
2006,12,15,05,33,41.80
2006,12,15,05,34,41.80
2006,12,15,05,35,45.10
2006,12,15,05,36,27.40
2006,12,15,05,37,32.20
2006,12,15,05,38,49.90
2006,12,15,05,39,43.50
2006,12,15,05,40,33.80
2006,12,15,05,41,43.50
2006,12,15,05,42,41.80
2006,12,15,05,43,35.40
2006,12,15,05,44,43.50
2006,12,15,05,45,46.70
2006,12,15,05,46,41.80
2006,12,15,05,47,51.50
2006,12,15,05,48,48.30
2006,12,15,05,49,49.90
2006,12,15,05,50,33.80
2006,12,15,05,51,30.60
2006,12,15,05,52,35.40
2006,12,15,05,53,41.80
2006,12,15,05,54,33.80
2006,12,15,05,55,32.20
2006,12,15,05,56,24.20
2006,12,15,05,57,24.20
2006,12,15,05,58,29.00
2006,12,15,05,59,33.80
2006,12,15,06,00,25.70
2006,12,15,06,01,29.00
2006,12,15,06,02,22.50
2006,12,15,06,03,43.50
2006,12,15,06,04,37.00
2006,12,15,06,05,29.00
2006,12,15,06,06,22.50
2006,12,15,06,07,27.40
2006,12,15,06,08,20.90
2006,12,15,06,09,33.80
2006,12,15,06,10,30.60
2006,12,15,06,11,35.40
2006,12,15,06,12,35.40
2006,12,15,06,13,20.90
2006,12,15,06,14,40.20
2006,12,15,06,15,30.60
2006,12,15,06,16,35.40
2006,12,15,06,17,25.70
2006,12,15,06,18,33.80
2006,12,15,06,19,38.60
2006,12,15,06,20,35.40
2006,12,15,06,21,37.00
2006,12,15,06,22,38.60
2006,12,15,06,23,30.60
2006,12,15,06,24,37.00
2006,12,15,06,25,45.10
2006,12,15,06,26,41.80
2006,12,15,06,27,38.60
2006,12,15,06,28,33.80
2006,12,15,06,29,33.80
2006,12,15,06,30,35.40
2006,12,15,06,31,49.90
2006,12,15,06,32,33.80
2006,12,15,06,33,38.60
2006,12,15,06,34,38.60
2006,12,15,06,35,32.20
2006,12,15,06,36,35.40
2006,12,15,06,37,41.80
2006,12,15,06,38,33.80
2006,12,15,06,39,32.20
2006,12,15,06,40,38.60
2006,12,15,06,41,49.90
2006,12,15,06,42,29.00
2006,12,15,06,43,35.40
2006,12,15,06,44,35.40
2006,12,15,06,45,30.60
2006,12,15,06,46,41.80
2006,12,15,06,47,53.10
2006,12,15,06,48,56.30
2006,12,15,06,49,37.00
2006,12,15,06,50,41.80
2006,12,15,06,51,43.50
2006,12,15,06,52,38.60
2006,12,15,06,53,35.40
2006,12,15,06,54,33.80
2006,12,15,06,55,32.20
2006,12,15,06,56,30.60
2006,12,15,06,57,25.70
2006,12,15,06,58,27.40
2006,12,15,06,59,37.00
2006,12,15,07,00,38.60
2006,12,15,07,01,41.80
2006,12,15,07,02,35.40
2006,12,15,07,03,38.60
2006,12,15,07,04,43.50
2006,12,15,07,05,43.50
2006,12,15,07,06,37.00
2006,12,15,07,07,37.00
2006,12,15,07,08,45.10
2006,12,15,07,09,45.10
2006,12,15,07,10,41.80
2006,12,15,07,11,40.20
2006,12,15,07,12,41.80
2006,12,15,07,13,57.90
2006,12,15,07,14,38.60
2006,12,15,07,15,53.10
2006,12,15,07,16,46.70
2006,12,15,07,17,41.80
2006,12,15,07,18,41.80
2006,12,15,07,19,33.80
2006,12,15,07,20,41.80
2006,12,15,07,21,56.30
2006,12,15,07,22,38.60
2006,12,15,07,23,49.90
2006,12,15,07,24,46.70
2006,12,15,07,25,43.50
2006,12,15,07,26,46.70
2006,12,15,07,27,48.30
2006,12,15,07,28,37.00
2006,12,15,07,29,41.80
2006,12,15,07,30,46.70
2006,12,15,07,31,41.80
2006,12,15,07,32,46.70
2006,12,15,07,33,35.40
2006,12,15,07,34,41.80
2006,12,15,07,35,43.50
2006,12,15,07,36,41.80
2006,12,15,07,37,33.80
2006,12,15,07,38,38.60
2006,12,15,07,39,40.20
2006,12,15,07,40,35.40
2006,12,15,07,41,32.20
2006,12,15,07,42,22.50
2006,12,15,07,43,33.80
2006,12,15,07,44,32.20
2006,12,15,07,45,35.40
2006,12,15,07,46,43.50
2006,12,15,07,47,41.80
2006,12,15,07,48,35.40
2006,12,15,07,49,48.30
2006,12,15,07,50,29.00
2006,12,15,07,51,37.00
2006,12,15,07,52,29.00
2006,12,15,07,53,35.40
2006,12,15,07,54,29.00
2006,12,15,07,55,35.40
2006,12,15,07,56,37.00
2006,12,15,07,57,30.60
2006,12,15,07,58,25.70
2006,12,15,07,59,35.40
2006,12,15,08,00,46.70
2006,12,15,08,01,45.10
2006,12,15,08,02,33.80
2006,12,15,08,03,33.80
2006,12,15,08,04,37.00
2006,12,15,08,05,35.40
2006,12,15,08,06,37.00
2006,12,15,08,07,41.80
2006,12,15,08,08,45.10
2006,12,15,08,09,45.10
2006,12,15,08,10,33.80
2006,12,15,08,11,30.60
2006,12,15,08,12,37.00
2006,12,15,08,13,38.60
2006,12,15,08,14,37.00
2006,12,15,08,15,41.80
2006,12,15,08,16,33.80
2006,12,15,08,17,29.00
2006,12,15,08,18,29.00
2006,12,15,08,19,43.50
2006,12,15,08,20,29.00
2006,12,15,08,21,38.60
2006,12,15,08,22,27.40
2006,12,15,08,23,32.20
2006,12,15,08,24,24.20
2006,12,15,08,25,29.00
2006,12,15,08,26,30.60
2006,12,15,08,27,30.60
2006,12,15,08,28,29.00
2006,12,15,08,29,32.20
2006,12,15,08,30,33.80
2006,12,15,08,31,35.40
2006,12,15,08,32,20.90
2006,12,15,08,33,30.60
2006,12,15,08,34,38.60
2006,12,15,08,35,35.40
2006,12,15,08,36,29.00
2006,12,15,08,37,30.60
2006,12,15,08,38,32.20
2006,12,15,08,39,30.60
2006,12,15,08,40,40.20
2006,12,15,08,41,30.60
2006,12,15,08,42,37.00
2006,12,15,08,43,32.20
2006,12,15,08,44,22.50
2006,12,15,08,45,27.40
2006,12,15,08,46,22.50
2006,12,15,08,47,33.80
2006,12,15,08,48,27.40
2006,12,15,08,49,24.20
2006,12,15,08,50,30.60
2006,12,15,08,51,27.40
2006,12,15,08,52,24.20
2006,12,15,08,53,30.60
2006,12,15,08,54,38.60
2006,12,15,08,55,30.60
2006,12,15,08,56,25.70
2006,12,15,08,57,17.70
2006,12,15,08,58,33.80
2006,12,15,08,59,35.40
2006,12,15,09,00,33.80
2006,12,15,09,01,29.00
2006,12,15,09,02,27.40
2006,12,15,09,03,25.70
2006,12,15,09,04,25.70
2006,12,15,09,05,25.70
2006,12,15,09,06,24.20
2006,12,15,09,07,17.70
2006,12,15,09,08,17.70
2006,12,15,09,09,30.60
2006,12,15,09,10,32.20
2006,12,15,09,11,22.50
2006,12,15,09,12,11.30
2006,12,15,09,13,22.50
2006,12,15,09,14,17.70
2006,12,15,09,15,20.90
2006,12,15,09,16,19.30
2006,12,15,09,17,19.30
2006,12,15,09,18,12.90
2006,12,15,09,19,20.90
2006,12,15,09,20,29.00
2006,12,15,09,21,24.20
2006,12,15,09,22,22.50
2006,12,15,09,23,25.70
2006,12,15,09,24,20.90
2006,12,15,09,25,17.70
2006,12,15,09,26,25.70
2006,12,15,09,27,25.70
2006,12,15,09,28,27.40
2006,12,15,09,29,25.70
2006,12,15,09,30,20.90
2006,12,15,09,31,19.30
2006,12,15,09,32,19.30
2006,12,15,09,33,19.30
2006,12,15,09,34,30.60
2006,12,15,09,35,25.70
2006,12,15,09,36,20.90
2006,12,15,09,37,25.70
2006,12,15,09,38,17.70
2006,12,15,09,39,17.70
2006,12,15,09,40,20.90
2006,12,15,09,41,27.40
2006,12,15,09,42,27.40
2006,12,15,09,43,22.50
2006,12,15,09,44,25.70
2006,12,15,09,45,19.30
2006,12,15,09,46,25.70
2006,12,15,09,47,20.90
2006,12,15,09,48,20.90
2006,12,15,09,49,11.30
2006,12,15,09,50,16.10
2006,12,15,09,51,14.50
2006,12,15,09,52,22.50
2006,12,15,09,53,25.70
2006,12,15,09,54,19.30
2006,12,15,09,55,14.50
2006,12,15,09,56,22.50
2006,12,15,09,57,16.10
2006,12,15,09,58,9.60
2006,12,15,09,59,17.70
2006,12,15,10,00,16.10
2006,12,15,10,01,19.30
2006,12,15,10,02,16.10
2006,12,15,10,03,9.60
2006,12,15,10,04,17.70
2006,12,15,10,05,11.30
2006,12,15,10,06,16.10
2006,12,15,10,07,22.50
2006,12,15,10,08,22.50
2006,12,15,10,09,9.60
2006,12,15,10,10,11.30
2006,12,15,10,11,11.30
2006,12,15,10,12,17.70
2006,12,15,10,13,25.70
2006,12,15,10,14,12.90
2006,12,15,10,15,9.60
2006,12,15,10,16,14.50
2006,12,15,10,17,14.50
2006,12,15,10,18,24.20
2006,12,15,10,19,12.90
2006,12,15,10,20,19.30
2006,12,15,10,21,19.30
2006,12,15,10,22,16.10
2006,12,15,10,23,16.10
2006,12,15,10,24,19.30
2006,12,15,10,25,20.90
2006,12,15,10,26,17.70
2006,12,15,10,27,20.90
2006,12,15,10,28,25.70
2006,12,15,10,29,19.30
2006,12,15,10,30,17.70
2006,12,15,10,31,20.90
2006,12,15,10,32,20.90
2006,12,15,10,33,24.20
2006,12,15,10,34,17.70
2006,12,15,10,35,16.10
2006,12,15,10,36,17.70
2006,12,15,10,37,22.50
2006,12,15,10,38,25.70
2006,12,15,10,39,27.40
2006,12,15,10,40,24.20
2006,12,15,10,41,25.70
2006,12,15,10,42,17.70
2006,12,15,10,43,25.70
2006,12,15,10,44,19.30
2006,12,15,10,45,20.90
2006,12,15,10,46,19.30
2006,12,15,10,47,24.20
2006,12,15,10,48,22.50
2006,12,15,10,49,20.90
2006,12,15,10,50,19.30
2006,12,15,10,51,19.30
2006,12,15,10,52,22.50
2006,12,15,10,53,19.30
2006,12,15,10,54,12.90
2006,12,15,10,55,19.30
2006,12,15,10,56,22.50
2006,12,15,10,57,22.50
2006,12,15,10,58,20.90
2006,12,15,10,59,33.80
2006,12,15,11,00,29.00
2006,12,15,11,01,19.30
2006,12,15,11,02,19.30
2006,12,15,11,03,20.90
2006,12,15,11,04,27.40
2006,12,15,11,05,14.50
2006,12,15,11,06,12.90
2006,12,15,11,07,19.30
2006,12,15,11,08,17.70
2006,12,15,11,09,16.10
2006,12,15,11,10,16.10
2006,12,15,11,11,12.90
2006,12,15,11,12,20.90
2006,12,15,11,13,19.30
2006,12,15,11,14,17.70
2006,12,15,11,15,20.90
2006,12,15,11,16,14.50
2006,12,15,11,17,22.50
2006,12,15,11,18,25.70
2006,12,15,11,19,19.30
2006,12,15,11,20,27.40
2006,12,15,11,21,25.70
2006,12,15,11,22,17.70
2006,12,15,11,23,19.30
2006,12,15,11,24,22.50
2006,12,15,11,25,20.90
2006,12,15,11,26,25.70
2006,12,15,11,27,17.70
2006,12,15,11,28,24.20
2006,12,15,11,29,22.50
2006,12,15,11,30,17.70
2006,12,15,11,31,27.40
2006,12,15,11,32,35.40
2006,12,15,11,33,17.70
2006,12,15,11,34,22.50
2006,12,15,11,35,22.50
2006,12,15,11,36,24.20
2006,12,15,11,37,19.30
2006,12,15,11,38,33.80
2006,12,15,11,39,17.70
2006,12,15,11,40,19.30
2006,12,15,11,41,22.50
2006,12,15,11,42,19.30
2006,12,15,11,43,14.50
2006,12,15,11,44,29.00
2006,12,15,11,45,19.30
2006,12,15,11,46,32.20
2006,12,15,11,47,16.10
2006,12,15,11,48,16.10
2006,12,15,11,49,22.50
2006,12,15,11,50,33.80
2006,12,15,11,51,35.40
2006,12,15,11,52,25.70
2006,12,15,11,53,25.70
2006,12,15,11,54,24.20
2006,12,15,11,55,19.30
2006,12,15,11,56,22.50
2006,12,15,11,57,19.30
2006,12,15,11,58,17.70
2006,12,15,11,59,22.50
2006,12,15,12,00,22.50
2006,12,15,12,01,24.20
2006,12,15,12,02,24.20
2006,12,15,12,03,25.70
2006,12,15,12,04,19.30
2006,12,15,12,05,22.50
2006,12,15,12,06,19.30
2006,12,15,12,07,29.00
2006,12,15,12,08,19.30
2006,12,15,12,09,25.70
2006,12,15,12,10,20.90
2006,12,15,12,11,22.50
2006,12,15,12,12,19.30
2006,12,15,12,13,19.30
2006,12,15,12,14,24.20
2006,12,15,12,15,17.70
2006,12,15,12,16,30.60
2006,12,15,12,17,30.60
2006,12,15,12,18,19.30
2006,12,15,12,19,24.20
2006,12,15,12,20,20.90
2006,12,15,12,21,19.30
2006,12,15,12,22,17.70
2006,12,15,12,23,30.60
2006,12,15,12,24,20.90
2006,12,15,12,25,16.10
2006,12,15,12,26,30.60
2006,12,15,12,27,24.20
2006,12,15,12,28,9.60
2006,12,15,12,29,20.90
2006,12,15,12,30,22.50
2006,12,15,12,31,22.50
2006,12,15,12,32,20.90
2006,12,15,12,33,16.10
2006,12,15,12,34,16.10
2006,12,15,12,35,24.20
2006,12,15,12,36,17.70
2006,12,15,12,37,16.10
2006,12,15,12,38,20.90
2006,12,15,12,39,19.30
2006,12,15,12,40,17.70
2006,12,15,12,41,20.90
2006,12,15,12,42,27.40
2006,12,15,12,43,19.30
2006,12,15,12,44,20.90
2006,12,15,12,45,17.70
2006,12,15,12,46,14.50
2006,12,15,12,47,20.90
2006,12,15,12,48,19.30
2006,12,15,12,49,16.10
2006,12,15,12,50,19.30
2006,12,15,12,51,22.50
2006,12,15,12,52,19.30
2006,12,15,12,53,19.30
2006,12,15,12,54,24.20
2006,12,15,12,55,27.40
2006,12,15,12,56,33.80
2006,12,15,12,57,27.40
2006,12,15,12,58,25.70
2006,12,15,12,59,29.00
2006,12,15,13,00,29.00
2006,12,15,13,01,25.70
2006,12,15,13,02,33.80
2006,12,15,13,03,24.20
2006,12,15,13,04,27.40
2006,12,15,13,05,24.20
2006,12,15,13,06,22.50
2006,12,15,13,07,30.60
2006,12,15,13,08,30.60
2006,12,15,13,09,33.80
2006,12,15,13,10,25.70
2006,12,15,13,11,35.40
2006,12,15,13,12,30.60
2006,12,15,13,13,24.20
2006,12,15,13,14,22.50
2006,12,15,13,15,19.30
2006,12,15,13,16,22.50
2006,12,15,13,17,17.70
2006,12,15,13,18,20.90
2006,12,15,13,19,24.20
2006,12,15,13,20,17.70
2006,12,15,13,21,20.90
2006,12,15,13,22,25.70
2006,12,15,13,23,20.90
2006,12,15,13,24,24.20
2006,12,15,13,25,19.30
2006,12,15,13,26,17.70
2006,12,15,13,27,12.90
2006,12,15,13,28,16.10
2006,12,15,13,29,16.10
2006,12,15,13,30,11.30
2006,12,15,13,31,17.70
2006,12,15,13,32,17.70
2006,12,15,13,33,17.70
2006,12,15,13,34,19.30
2006,12,15,13,35,19.30
2006,12,15,13,36,16.10
2006,12,15,13,37,17.70
2006,12,15,13,38,8.10
2006,12,15,13,39,6.40
2006,12,15,13,40,6.40
2006,12,15,13,41,11.30
2006,12,15,13,42,14.50
2006,12,15,13,43,16.10
2006,12,15,13,44,17.70
2006,12,15,13,45,20.90
2006,12,15,13,46,6.40
2006,12,15,13,47,14.50
2006,12,15,13,48,16.10
2006,12,15,13,49,22.50
2006,12,15,13,50,16.10
2006,12,15,13,51,16.10
2006,12,15,13,52,11.30
2006,12,15,13,53,12.90
2006,12,15,13,54,9.60
2006,12,15,13,55,11.30
2006,12,15,13,56,9.60
2006,12,15,13,57,11.30
2006,12,15,13,58,8.10
2006,12,15,13,59,9.60
2006,12,15,14,00,4.80
2006,12,15,14,01,4.80
2006,12,15,14,02,12.90
2006,12,15,14,03,11.30
2006,12,15,14,04,20.90
2006,12,15,14,05,27.40
2006,12,15,14,06,17.70
2006,12,15,14,07,11.30
2006,12,15,14,08,22.50
2006,12,15,14,09,27.40
2006,12,15,14,10,16.10
2006,12,15,14,11,25.70
2006,12,15,14,12,17.70
2006,12,15,14,13,16.10
2006,12,15,14,14,19.30
2006,12,15,14,15,22.50
2006,12,15,14,16,20.90
2006,12,15,14,17,16.10
2006,12,15,14,18,19.30
2006,12,15,14,19,11.30
2006,12,15,14,20,14.50
2006,12,15,14,21,11.30
2006,12,15,14,22,16.10
2006,12,15,14,23,19.30
2006,12,15,14,24,19.30
2006,12,15,14,25,17.70
2006,12,15,14,26,20.90
2006,12,15,14,27,19.30
2006,12,15,14,28,9.60
2006,12,15,14,29,17.70
2006,12,15,14,30,22.50
2006,12,15,14,31,19.30
2006,12,15,14,32,17.70
2006,12,15,14,33,16.10
2006,12,15,14,34,9.60
2006,12,15,14,35,9.60
2006,12,15,14,36,11.30
2006,12,15,14,37,17.70
2006,12,15,14,38,14.50
2006,12,15,14,39,11.30
2006,12,15,14,40,14.50
2006,12,15,14,41,11.30
2006,12,15,14,42,11.30
2006,12,15,14,43,19.30
2006,12,15,14,44,16.10
2006,12,15,14,45,17.70
2006,12,15,14,46,17.70
2006,12,15,14,47,16.10
2006,12,15,14,48,9.60
2006,12,15,14,49,17.70
2006,12,15,14,50,19.30
2006,12,15,14,51,16.10
2006,12,15,14,52,11.30
2006,12,15,14,53,14.50
2006,12,15,14,54,16.10
2006,12,15,14,55,14.50
2006,12,15,14,56,17.70
2006,12,15,14,57,17.70
2006,12,15,14,58,8.10
2006,12,15,14,59,6.40
2006,12,15,15,00,6.40
2006,12,15,15,01,6.40
2006,12,15,15,02,14.50
2006,12,15,15,03,8.10
2006,12,15,15,04,9.60
2006,12,15,15,05,11.30
2006,12,15,15,06,8.10
2006,12,15,15,07,11.30
2006,12,15,15,08,14.50
2006,12,15,15,09,9.60
2006,12,15,15,10,6.40
2006,12,15,15,11,9.60
2006,12,15,15,12,6.40
2006,12,15,15,13,11.30
2006,12,15,15,14,6.40
2006,12,15,15,15,4.80
2006,12,15,15,16,3.20
2006,12,15,15,17,4.80
2006,12,15,15,18,4.80
2006,12,15,15,19,6.40
2006,12,15,15,20,8.10
2006,12,15,15,21,6.40
2006,12,15,15,22,6.40
2006,12,15,15,23,9.60
2006,12,15,15,24,11.30
2006,12,15,15,25,6.40
2006,12,15,15,26,6.40
2006,12,15,15,27,8.10
2006,12,15,15,28,8.10
2006,12,15,15,29,9.60
2006,12,15,15,30,9.60
2006,12,15,15,31,8.10
2006,12,15,15,32,4.80
2006,12,15,15,33,6.40
2006,12,15,15,34,6.40
2006,12,15,15,35,8.10
2006,12,15,15,36,8.10
2006,12,15,15,37,8.10
2006,12,15,15,38,6.40
2006,12,15,15,39,6.40
2006,12,15,15,40,3.20
2006,12,15,15,41,3.20
2006,12,15,15,42,3.20
2006,12,15,15,43,3.20
2006,12,15,15,44,4.80
2006,12,15,15,45,3.20
2006,12,15,15,46,3.20
2006,12,15,15,47,4.80
2006,12,15,15,48,3.20
2006,12,15,15,49,4.80
2006,12,15,15,50,6.40
2006,12,15,15,51,4.80
2006,12,15,15,52,3.20
2006,12,15,15,53,4.80
2006,12,15,15,54,4.80
2006,12,15,15,55,6.40
2006,12,15,15,56,4.80
2006,12,15,15,57,4.80
2006,12,15,15,58,3.20
2006,12,15,15,59,3.20
2006,12,15,16,00,4.80
2006,12,15,16,01,3.20
2006,12,15,16,02,1.60
2006,12,15,16,03,3.20
2006,12,15,16,04,6.40
2006,12,15,16,05,6.40
2006,12,15,16,06,6.40
2006,12,15,16,07,4.80
2006,12,15,16,08,4.80
2006,12,15,16,09,6.40
2006,12,15,16,10,4.80
2006,12,15,16,11,4.80
2006,12,15,16,12,6.40
2006,12,15,16,13,4.80
2006,12,15,16,14,4.80
2006,12,15,16,15,4.80
2006,12,15,16,16,3.20
2006,12,15,16,17,4.80
2006,12,15,16,18,4.80
2006,12,15,16,19,4.80
2006,12,15,16,20,6.40
2006,12,15,16,21,3.20
2006,12,15,16,22,3.20
2006,12,15,16,23,3.20
2006,12,15,16,24,4.80
2006,12,15,16,25,6.40
2006,12,15,16,26,6.40
2006,12,15,16,27,4.80
2006,12,15,16,28,6.40
2006,12,15,16,29,8.10
2006,12,15,16,30,8.10
2006,12,15,16,31,14.50
2006,12,15,16,32,17.70
2006,12,15,16,33,14.50
2006,12,15,16,34,19.30
2006,12,15,16,35,12.90
2006,12,15,16,36,17.70
2006,12,15,16,37,16.10
2006,12,15,16,38,11.30
2006,12,15,16,39,3.20
2006,12,15,16,40,4.80
2006,12,15,16,41,8.10
2006,12,15,16,42,9.60
2006,12,15,16,43,4.80
2006,12,15,16,44,1.60
2006,12,15,16,45,1.60
2006,12,15,16,46,3.20
2006,12,15,16,47,3.20
2006,12,15,16,48,3.20
2006,12,15,16,49,6.40
2006,12,15,16,50,6.40
2006,12,15,16,51,1.60
2006,12,15,16,52,1.60
2006,12,15,16,53,0.00
2006,12,15,16,54,0.00
2006,12,15,16,55,0.00
2006,12,15,16,56,0.00
2006,12,15,16,57,0.00
2006,12,15,16,58,0.00
2006,12,15,16,59,0.00
2006,12,15,17,00,4.80
2006,12,15,17,01,4.80
2006,12,15,17,02,3.20
2006,12,15,17,03,3.20
2006,12,15,17,04,4.80
2006,12,15,17,05,1.60
2006,12,15,17,06,3.20
2006,12,15,17,07,1.60
2006,12,15,17,08,1.60
2006,12,15,17,09,3.20
2006,12,15,17,10,3.20
2006,12,15,17,11,3.20
2006,12,15,17,12,4.80
2006,12,15,17,13,8.10
2006,12,15,17,14,3.20
2006,12,15,17,15,3.20
2006,12,15,17,16,4.80
2006,12,15,17,17,3.20
2006,12,15,17,18,4.80
2006,12,15,17,19,4.80
2006,12,15,17,20,4.80
2006,12,15,17,21,4.80
2006,12,15,17,22,3.20
2006,12,15,17,23,1.60
2006,12,15,17,24,0.00
2006,12,15,17,25,1.60
2006,12,15,17,26,3.20
2006,12,15,17,27,6.40